(185329) = 2006 VK26

Discovered at Kitt Peak on 2006-11-10 by Spacewatch.

Orbit

Orbit type: Main Belt

Note: WebGL enabled browser required.

epoch2023-09-13.0
epoch JD2460200.5
perihelion date2023-09-07.27433
perihelion JD2460194.77433
argument of perihelion (°)72.69156
ascending node (°)355.32799
inclination (°)0.85734
eccentricity0.1567700
perihelion distance (AU)2.6561861
Tisserand w.r.t. Jupiter3.2
ΔV w.r.t. Earth (km/sec)10.2
semimajor axis (AU)3.1500137
mean anomaly (°)1.00940
mean daily motion (°/day)0.17629300
aphelion distance (AU)3.644
period (years)5.59
P-vector [x]0.37428145
P-vector [y]0.84501170
P-vector [z]0.38192751
Q-vector [x]-0.92731436
Q-vector [y]0.34160327
Q-vector [z]0.15295520
absolute magnitude16.48
phase slope0.15
uncertainty0
referenceMPEC 2023-Y18
observations used299
oppositions14
arc length (days)8485
first opposition used2000
last opposition used2023
residual rms (arc-secs)0.81
perturbers coarse indicatorM-v
perturbers precise indicator003Ek
first observation date used2000-09-21.0
last observation date used2023-12-15.0
computer nameMPCLINUX
JD of orbit computation2456819.648719
perihelion JD uncertainty (days)1.0972E-04
argument of perihelion uncertainty (°)2.7486E-04
ascending node uncertainty (°)2.7393E-04
inclination uncertainty (°)4.6939E-06
eccentricity uncertainty 4.8588E-08
perihelion distance uncertainty (AU)1.5323E-07
Minimum Orbit Intersection Distances (in AU)
for orbit epoch: 2460200.5, reference: E2023-Y18
Mercury2.34775
Venus1.93529
Earth1.66923
Mars1.11044
Jupiter1.65551
Saturn6.26447
Uranus15.1319
Neptune26.8346

Observations

307 total observations over interval: 2000 09 21.35095 – 2023 12 15.307968
These data are available for download (format description).

Date (UT) J2000 RA J2000 Dec Magn Location Ref
2000 09 21.35095 01 00 59.17 +06 51 50.3 21.9 V 691 – Steward Observatory, Kitt Peak-Spacewatch MPS 192405
2000 09 21.37223 01 00 58.33 +06 51 45.8 22.1 V 691 – Steward Observatory, Kitt Peak-Spacewatch MPS 192405
2000 09 21.39350 01 00 57.43 +06 51 40.8 21.4 V 691 – Steward Observatory, Kitt Peak-Spacewatch MPS 192405
2002 01 22.17939 08 43 59.95 +19 10 24.9 20.8 V 291 – LPL/Spacewatch II MPS 192405
2002 01 22.20065 08 43 58.86 +19 10 28.7 20.7 V 291 – LPL/Spacewatch II MPS 192405
2002 01 22.22214 08 43 57.73 +19 10 33.0 20.6 V 291 – LPL/Spacewatch II MPS 192405
2002 02 09.10932 08 28 46.10 +20 01 32.0 21.1 V 691 – Steward Observatory, Kitt Peak-Spacewatch MPS 192405
2002 02 09.13137 08 28 45.02 +20 01 35.8 21.0 V 691 – Steward Observatory, Kitt Peak-Spacewatch MPS 192405
2002 02 09.15340 08 28 43.95 +20 01 38.8 20.9 V 691 – Steward Observatory, Kitt Peak-Spacewatch MPS 192405
2006 09 27.43318 04 21 42.33 +22 25 02.3 20.6 V G96 – Mt. Lemmon Survey MPS 192405
2006 09 27.44056 04 21 42.44 +22 25 02.6 20.8 V G96 – Mt. Lemmon Survey MPS 192405
2006 09 27.44782 04 21 42.62 +22 25 03.9 20.8 V G96 – Mt. Lemmon Survey MPS 192405
2006 09 27.45508 04 21 42.73 +22 25 03.9 21.0 V G96 – Mt. Lemmon Survey MPS 192405
2006 10 17.36648 04 23 04.12 +22 37 57.8 20.6 V G96 – Mt. Lemmon Survey MPS 192405
2006 10 17.37335 04 23 04.05 +22 37 57.4 20.7 V G96 – Mt. Lemmon Survey MPS 192405
2006 10 17.38009 04 23 03.91 +22 37 58.3 20.3 V G96 – Mt. Lemmon Survey MPS 192405
2006 10 17.38684 04 23 03.84 +22 37 58.3 20.1 V G96 – Mt. Lemmon Survey MPS 192405
2006 10 28.32984 04 19 07.32 +22 33 52.0 20.2 V G96 – Mt. Lemmon Survey MPS 190665
2006 10 28.34009 04 19 06.99 +22 33 51.8 20.3 V G96 – Mt. Lemmon Survey MPS 190665
2006 10 28.35034 04 19 06.63 +22 33 51.1 19.9 V G96 – Mt. Lemmon Survey MPS 190665
2006 10 28.36071 04 19 06.31 +22 33 50.7 19.9 V G96 – Mt. Lemmon Survey MPS 190665
2006 11 10.22138 04 10 46.67 +22 18 14.6 20.9 V 691 – Steward Observatory, Kitt Peak-Spacewatch MPS 187243
2006 11 10.23870 04 10 45.85 +22 18 12.2 20.7 V 691 – Steward Observatory, Kitt Peak-Spacewatch MPS 187243
2006 11 10.25608 04 10 45.01 +22 18 11.4 20.6 V 691 – Steward Observatory, Kitt Peak-Spacewatch MPS 187243
2006 11 14.25914 04 07 32.81 +22 11 02.9   691 – Steward Observatory, Kitt Peak-Spacewatch MPS 187243
2006 11 14.28339 04 07 31.56 +22 11 00.0   691 – Steward Observatory, Kitt Peak-Spacewatch MPS 187243
2006 11 14.30078 04 07 30.66 +22 10 58.1   691 – Steward Observatory, Kitt Peak-Spacewatch MPS 187243
2006 11 18.15429 04 04 15.23 +22 03 10.6 20.2 V 691 – Steward Observatory, Kitt Peak-Spacewatch MPS 188871
2006 11 18.17507 04 04 14.13 +22 03 07.9 20.3 V 691 – Steward Observatory, Kitt Peak-Spacewatch MPS 188871
2006 11 18.19246 04 04 13.19 +22 03 06.0 20.3 V 691 – Steward Observatory, Kitt Peak-Spacewatch MPS 188871
2006 11 22.15634 04 00 45.34 +21 54 18.7 20.1 V 691 – Steward Observatory, Kitt Peak-Spacewatch MPS 188871
2006 11 22.17376 04 00 44.39 +21 54 16.4 20.0 V 691 – Steward Observatory, Kitt Peak-Spacewatch MPS 188871
2006 11 22.19116 04 00 43.44 +21 54 14.1 19.9 V 691 – Steward Observatory, Kitt Peak-Spacewatch MPS 188871
2006 12 01.16880 03 52 52.10 +21 32 27.9 19.5 V G96 – Mt. Lemmon Survey MPS 192405
2006 12 01.17419 03 52 51.85 +21 32 26.5 19.6 V G96 – Mt. Lemmon Survey MPS 192405
2006 12 01.18030 03 52 51.52 +21 32 25.9 19.8 V G96 – Mt. Lemmon Survey MPS 192405
2006 12 01.18569 03 52 51.24 +21 32 25.7 20.0 V G96 – Mt. Lemmon Survey MPS 192405
2007 02 07.12056 03 46 16.46 +20 55 27.7 20.9 V G96 – Mt. Lemmon Survey MPS 198757
2007 02 07.12665 03 46 16.75 +20 55 28.5 20.6 V G96 – Mt. Lemmon Survey MPS 198757
2007 02 07.13280 03 46 16.96 +20 55 28.9 20.8 V G96 – Mt. Lemmon Survey MPS 198757
2007 02 07.13895 03 46 17.29 +20 55 29.6 21.1 V G96 – Mt. Lemmon Survey MPS 198757
2008 01 30.46451 11 30 51.65 +03 30 17.3 21.3 V 691 – Steward Observatory, Kitt Peak-Spacewatch MPS 235515
2008 01 30.48283 11 30 51.24 +03 30 19.9 20.8 V 691 – Steward Observatory, Kitt Peak-Spacewatch MPS 235515
2008 01 30.50089 11 30 50.92 +03 30 22.4 21.4 V 691 – Steward Observatory, Kitt Peak-Spacewatch MPS 235515
2008 02 03.39200 11 29 22.26 +03 39 16.8 20.9 V 691 – Steward Observatory, Kitt Peak-Spacewatch MPS 236341
2008 02 03.40724 11 29 21.83 +03 39 18.4 21.0 V 691 – Steward Observatory, Kitt Peak-Spacewatch MPS 236341
2008 02 03.42248 11 29 21.41 +03 39 20.9 20.9 V 691 – Steward Observatory, Kitt Peak-Spacewatch MPS 236341
2008 03 05.31949 11 09 15.76 +05 40 30.0 20.1 V G96 – Mt. Lemmon Survey MPS 240805
2008 03 05.32509 11 09 15.44 +05 40 31.9 20.1 V G96 – Mt. Lemmon Survey MPS 240805
2008 03 05.33014 11 09 15.26 +05 40 33.0 19.9 V G96 – Mt. Lemmon Survey MPS 240805
2008 03 05.33521 11 09 14.94 +05 40 33.1 19.1 V G96 – Mt. Lemmon Survey MPS 240805
2008 03 05.36848 11 09 13.39 +05 40 43.8 20.2 V G96 – Mt. Lemmon Survey MPS 240805
2008 03 05.37495 11 09 13.10 +05 40 45.6 19.8 V G96 – Mt. Lemmon Survey MPS 240805
2008 03 05.38143 11 09 12.78 +05 40 47.4 20.3 V G96 – Mt. Lemmon Survey MPS 240805
2008 03 05.38800 11 09 12.42 +05 40 48.2 18.7 V G96 – Mt. Lemmon Survey MPS 240805
2008 03 12.16433 11 04 00.10 +06 11 41.2 20.8 V 691 – Steward Observatory, Kitt Peak-Spacewatch MPS 243577
2008 03 12.18205 11 03 59.25 +06 11 45.8 20.8 V 691 – Steward Observatory, Kitt Peak-Spacewatch MPS 243577
2008 03 12.20031 11 03 58.39 +06 11 50.9 20.7 V 691 – Steward Observatory, Kitt Peak-Spacewatch MPS 243577
2008 03 26.27321 10 54 14.18 +07 08 19.5 21.2 V G96 – Mt. Lemmon Survey MPS 244067
2008 03 26.28039 10 54 13.89 +07 08 20.6 20.8 V G96 – Mt. Lemmon Survey MPS 244067
2008 03 26.28763 10 54 13.60 +07 08 22.0 21.0 V G96 – Mt. Lemmon Survey MPS 244067
2008 03 26.29490 10 54 13.32 +07 08 23.6 21.1 V G96 – Mt. Lemmon Survey MPS 244067
2011 09 20.41081 00 02 32.67 +00 22 13.3 19.9 V G96 – Mt. Lemmon Survey MPS 392303
2011 09 20.41852 00 02 32.31 +00 22 10.8 20.1 V G96 – Mt. Lemmon Survey MPS 392303
2011 09 20.42624 00 02 31.99 +00 22 09.0 20.2 V G96 – Mt. Lemmon Survey MPS 392303
2011 09 20.43389 00 02 31.59 +00 22 06.8 20.2 V G96 – Mt. Lemmon Survey MPS 392303
2011 09 24.32230 23 59 35.55 +00 04 13.1 20.0 V G96 – Mt. Lemmon Survey MPS 393963
2011 09 24.33037 23 59 35.19 +00 04 11.0 20.0 V G96 – Mt. Lemmon Survey MPS 393963
2011 09 24.33843 23 59 34.83 +00 04 08.6 20.1 V G96 – Mt. Lemmon Survey MPS 393963
2011 09 24.34649 23 59 34.44 +00 04 06.5 19.9 V G96 – Mt. Lemmon Survey MPS 393963
2011 10 01.25024 23 54 22.75 -00 27 33.6 20.5 V G96 – Mt. Lemmon Survey MPS 394886
2011 10 01.25800 23 54 22.39 -00 27 35.7 20.5 V G96 – Mt. Lemmon Survey MPS 394886
2011 10 01.26565 23 54 22.06 -00 27 37.8 20.5 V G96 – Mt. Lemmon Survey MPS 394886
2011 10 01.27349 23 54 21.70 -00 27 40.2 20.3 V G96 – Mt. Lemmon Survey MPS 394886
2011 10 19.26515 23 42 45.18 -01 37 59.3 20.5 V G96 – Mt. Lemmon Survey MPS 396006
2011 10 19.27042 23 42 45.00 -01 38 00.0 20.3 V G96 – Mt. Lemmon Survey MPS 396006
2011 10 19.27565 23 42 44.82 -01 38 01.3 20.8 V G96 – Mt. Lemmon Survey MPS 396006
2011 10 19.28088 23 42 44.67 -01 38 02.1 19.7 V G96 – Mt. Lemmon Survey MPS 396006
2011 10 26.12456 23 39 40.93 -01 56 13.9 21.2 V G96 – Mt. Lemmon Survey MPS 397833
2011 10 26.12810 23 39 40.82 -01 56 14.6 20.6 V G96 – Mt. Lemmon Survey MPS 397833
2011 10 26.13289 23 39 40.68 -01 56 15.1 20.3 V G96 – Mt. Lemmon Survey MPS 397833
2011 10 26.13776 23 39 40.57 -01 56 15.8 20.6 V G96 – Mt. Lemmon Survey MPS 397833
2012 10 20.38502 07 46 09.94 +22 09 29.5 21.5 V G96 – Mt. Lemmon Survey MPS 439111
2012 10 20.39351 07 46 10.45 +22 09 27.7 21.9 V G96 – Mt. Lemmon Survey MPS 439111
2012 10 20.40212 07 46 10.92 +22 09 27.0 21.9 V G96 – Mt. Lemmon Survey MPS 439111
2012 10 20.41069 07 46 11.38 +22 09 26.1 21.5 V G96 – Mt. Lemmon Survey MPS 439111
2012 12 07.42382 08 03 12.63 +21 37 07.5 20.6 V G96 – Mt. Lemmon Survey MPS 445699
2012 12 07.43074 08 03 12.49 +21 37 08.5 21.2 V G96 – Mt. Lemmon Survey MPS 445699
2012 12 07.43770 08 03 12.34 +21 37 08.3 20.7 V G96 – Mt. Lemmon Survey MPS 445699
2012 12 07.44471 08 03 12.09 +21 37 08.9 21.3 V G96 – Mt. Lemmon Survey MPS 445699
2012 12 10.35886 08 02 14.32 +21 40 36.5 20.4 V 691 – Steward Observatory, Kitt Peak-Spacewatch MPS 447401
